Find Kosmos-2067

NORAD ID: 20552 Int'l Des: 1990-029 Owner: UNKS Country: SU operational
LEOCIRCULAR

Live-Position

3D-Globus wird geladen...

Über Kosmos-2067

Beschreibung wird geladen...

Nächste Überflüge

Passes for default location (London). Set your location on the main map for personalized predictions.

Höhenverlauf

Loading altitude history...

Zweizeiliger Elementsatz

1 20552U 90029D 26106.69019044 -.00000014 00000-0 16209-4 0 9990
2 20552 73.9789 93.8699 0040773 253.4222 280.8139 12.57937210654467
Epoch: 16. Apr. 2026 • Age: 11 hours

Aktueller Status

Höhe 1450.0 km
Geschwindigkeit 7.13 km/s
Subsatellitenpunkt 14.37°N, 155.34°W
Startdatum 6. Apr. 1990
Alter 36 years
Typ other

Technische Details

Klassifizierung Payload
Masse 60.00 kg
Trockenmasse 60.00 kg
Gesamtmasse 60.00 kg
Länge 0.80 m
Durchmesser 0.80 m
Spannweite 0.80 m
Form Poly
Hersteller NPOPM
Bus-Typ Strela-1 11F625
Phasenstatus In Orbit
Besitzer/Staat UNKS/SU

Most Searched